Location: Lecco
(45.8566°N, 9.3977°E)
Time: 08:25:36
(UTC+02:00)

Altair - Pass Details

Date: 19 August 2020
Orbit: 1501 x 1682 km, 47.2° (Epoch: 25 September)

Event Time Altitude Azimuth Distance (km) Brightness Sun altitude
Rises 22:48:48 0° 177° (S) 4,891 - -21.9°
Reaches altitude 10° 22:53:45 10° 157° (SSE) 3,881 - -22.4°
Maximum altitude 22:58:53 16° 125° (SE) 3,422 - -23.0°
Drops below altitude 10° 23:03:57 10° 93° (E) 3,818 - -23.6°
Exits shadow 23:05:35 - 85° (E) 4,101 9.4 -23.7°
Sets 23:08:41 0° 73° (ENE) 4,771 9.9 -24.1°
